Preview of NWS' New Version of Forecast
This preview is not operational and should not be used for support decisions.

Regional Weather Roundup (RWR)

Issued by National Weather Service (NWS)

                            
000
ASUS44 KMEG 200900
RWRTN 
TENNESSEE HOURLY STATE WEATHER ROUNDUP
NATIONAL WEATHER SERVICE MEMPHIS TN
400 AM CDT WED MAR 20 2019

TNZ002-004-019-021-049-052-054-088>092-201000-
WEST TENNESSEE
  
CITY           SKY/WX    TMP DP  RH WIND       PRES   REMARKS
MEMPHIS INTL   FAIR      46  24  42 S8        30.24F                  
NWS MEMPHIS      N/A     38 N/A N/A MISG        N/A                   
JACKSON        FAIR      32  29  88 CALM      30.25F                  
DYERSBURG      FAIR      42  31  64 SE3         N/A                   
$$

TNZ008-025-027-028-033-062-065-066-201000-
NORTH MIDDLE TENNESSEE
  
CITY           SKY/WX    TMP DP  RH WIND       PRES   REMARKS
NASHVILLE      FAIR      36  27  69 S3        30.26F                  
CLARKSVILLE    FAIR      34  26  72 S3        30.25F                  
SMYRNA         FAIR      30  27  88 CALM      30.27F                  
CROSSVILLE     FAIR      30  20  66 CALM      30.23F                  
$$

TNZ061-075-076-078-094-096-097-201000-
SOUTH MIDDLE TENNESSEE
  
CITY           SKY/WX    TMP DP  RH WIND       PRES   REMARKS
FAYETTEVILLE   CLEAR     37  23  56 NE5       30.23F WCI  34          
$$

TNZ017-018-042-046-047-201000-
NORTHEAST TENNESSEE
  
CITY           SKY/WX    TMP DP  RH WIND       PRES   REMARKS
TRI CITIES     FAIR      28  22  78 CALM      30.25F                  
$$

TNZ012-013-036-069-073-074-201000-
CENTRAL EAST TENNESSEE
  
CITY           SKY/WX    TMP DP  RH WIND       PRES   REMARKS
KNOXVILLE      FAIR      33  24  69 CALM      30.24F                  
OAK RIDGE      FAIR      31  24  75 CALM      30.26F                  
$$

TNZ083-085-099-201000-
SOUTHEAST TENNESSEE
  
CITY           SKY/WX    TMP DP  RH WIND       PRES   REMARKS
CHATTANOOGA    FAIR      35  29  78 MISG      30.26F                  
$$

SKY/WX REPORTED AS FAIR MEANS FEW OR NO CLOUDS BELOW
12 THOUSAND FEET.